Location: Caltech
(34.1382°N, 118.1253°W)
Time: 03:17:58
(UTC-08:00)

AO-7 - Visible Passes

Search period start: 22 February 2017 00:00
Search period end: 04 March 2017 00:00
Orbit: 1440 x 1458 km, 101.6° (Epoch: 21 February)

Date Brightness Start Highest point End Pass type
(mag) Time Alt. Az. Time Alt. Az. Time Alt. Az.
22 Feb ? 02:00:13 10° ENE 02:05:07 17° E 02:05:31 17° E visible
22 Feb ? 03:50:16 10° NNE 03:58:36 83° WNW 04:00:27 59° SSW visible
22 Feb ? 05:45:35 10° NNW 05:50:06 16° NW 05:54:37 10° W visible
23 Feb ? 02:50:51 10° NNE 02:58:35 41° E 02:59:36 40° ESE visible
23 Feb ? 04:43:41 10° N 04:51:11 39° WNW 04:54:32 28° WSW visible
24 Feb ? 01:53:55 10° ENE 01:58:03 14° E 01:58:46 14° E visible
24 Feb ? 03:43:17 10° NNE 03:51:39 90° ESE 03:53:41 57° SSW visible
24 Feb ? 05:38:15 10° NNW 05:43:17 18° NW 05:48:20 10° W visible
25 Feb ? 02:44:02 10° NE 02:51:34 37° E 02:52:51 35° ESE visible
25 Feb ? 04:36:37 10° N 04:44:17 43° WNW 04:47:47 30° WSW visible
26 Feb ? 01:47:53 10° ENE 01:50:58 12° E 01:52:00 12° E visible
26 Feb ? 03:36:20 10° NNE 03:44:41 82° ESE 03:46:56 54° S visible
26 Feb ? 05:30:57 10° NNW 05:36:27 20° NW 05:41:52 10° W visible
27 Feb ? 02:37:16 10° NE 02:44:33 33° E 02:46:05 31° ESE visible
27 Feb ? 04:29:33 10° N 04:37:22 48° WNW 04:41:01 31° WSW visible
28 Feb ? 01:42:43 10° E 01:43:53 10° E 01:45:02 10° E visible
28 Feb ? 03:29:23 10° NNE 03:37:43 75° ESE 03:40:11 50° S visible
28 Feb ? 05:23:43 10° NNW 05:29:37 22° WNW 05:35:06 11° WSW visible
01 Mar ? 02:30:31 10° NE 02:37:31 30° E 02:39:20 27° ESE visible
01 Mar ? 04:22:30 10° N 04:30:28 53° WNW 04:34:16 32° SW visible
02 Mar ? 03:22:28 10° NNE 03:30:44 68° ESE 03:33:26 46° S visible
02 Mar ? 05:16:30 10° N 05:22:46 25° WNW 05:28:21 12° WSW visible
03 Mar ? 02:23:48 10° NE 02:30:29 26° E 02:32:35 24° ESE visible
03 Mar ? 04:15:28 10° N 04:23:33 58° WNW 04:27:31 32° SW visible
